Погода в Президенти-Пруденти

Бразилия     22°08′07″S   51°23′49″W
темп.,
°C
ветер,
м/с
пор.,
м/с
влажн.,
%
обл.,
%
осадки,
мм/ч
давл.,
гПа
погр.,
м
7 августа, вс
вс700:00+20в3463100 0.0 101248
03:00+20вюв2360100 0.0 101265
06:00+17юв4882100 0.0 1013160
09:00+21вюв5661100 0.0 1014236
12:00+24вюв4448100 0.0 1014518
15:00+22ююв5656100 0.0 1013281
18:00+21ююв4760100 0.0 1012195
21:00+19ююв3668100 0.0 1013136
8 августа, пн
пн800:00+19ю3577100 0.2 1014140
03:00+17вюв4694100 5.3 1016208
06:00+17св61192100 2.5 1013320
09:00+19ссв4782100 2.5 1017330
12:00+20ссз4680100 0.1 1018517
15:00+19всв2384100 1.8 1015142
18:00+18с2480100 0.8 1016106
21:00+17с3879100 1.3 1017212
9 августа, вт
вт900:00+17вюв1180100 0.0 101718
03:00+17в2385100 0.2 101790
06:00+17всв2385100 0.1 101777
09:00+18св478792 0.7 1018328
12:00+22ссз6873100 1.6 1018973
15:00+20з7985100 5.4 1016925
18:00+16зюз51189100 1.6 1018579
21:00+14зюз6118999 2.4 1021698
10 августа, ср
ср1000:00+13з51089100 0.0 1021702
03:00+13зюз5991100 0.3 1019716
06:00+11зюз4109443 0.3 1020556
09:00+12зюз577914 0.3 1021697
12:00+16зюз67504 0.0 10211497
15:00+17юз774923 0.0 10191560
18:00+14юз57632 0.0 1021501
21:00+12юз35760 0.0 1022126
11 августа, чт
чт1100:00+11ююв37840 0.0 1022156
03:00+10юв37890 0.0 1021173
06:00+10вюв413860 0.0 1021393
09:00+14вюв711660 0.0 1022613
12:00+20в67430 0.0 10211275
15:00+23в56335 0.0 10191616
18:00+19вюв34440 0.0 101958
21:00+16вюв513510 0.0 1020307